| time (UTC) | temp F | wind direction | speed MPH | gust MPH | rain 1hr in | rain 24hr in | rain mn in | humidity % | barometer mb |
| 20260509145005 | 48 | 348 | 4.0 | 16.0 | 0.00 | 0.00 | 0.00 | 41 | 1003.1 |
| 20260509144710 | 48 | 320 | 10.0 | 13.0 | 0.00 | 0.00 | 0.00 | 42 | 1003.3 |
| 20260509144004 | 47 | 304 | 3.0 | 17.0 | 0.00 | 0.00 | 0.00 | 42 | 1003.0 |
| 20260509143210 | 47 | 261 | 8.0 | 9.0 | 0.00 | 0.00 | 0.00 | 41 | 1002.9 |
| 20260509143004 | 47 | 288 | 9.0 | 16.0 | 0.00 | 0.00 | 0.00 | 42 | 1002.8 |
| 20260509141709 | 47 | 306 | 2.0 | 10.0 | 0.00 | 0.00 | 0.00 | 43 | 1002.7 |
| 20260509140208 | 46 | 275 | 6.0 | 12.0 | 0.00 | 0.00 | 0.00 | 41 | 1002.6 |
| 20260509140005 | 46 | 340 | 7.0 | 16.0 | 0.00 | 0.00 | 0.00 | 43 | 1002.5 |
| 20260509135004 | 46 | 348 | 8.0 | 15.0 | 0.00 | 0.00 | 0.00 | 43 | 1002.6 |
| 20260509134709 | 46 | 10 | 3.0 | 8.0 | 0.00 | 0.00 | 0.00 | 46 | 1002.5 |
| 20260509134004 | 46 | 299 | 4.0 | 16.0 | 0.00 | 0.00 | 0.00 | 44 | 1002.5 |
| 20260509133208 | 46 | 312 | 6.0 | 12.0 | 0.00 | 0.00 | 0.00 | 45 | 1002.4 |
| 20260509133004 | 46 | 293 | 6.0 | 12.0 | 0.00 | 0.00 | 0.00 | 46 | 1002.4 |
| 20260509132004 | 46 | 348 | 3.0 | 8.0 | 0.00 | 0.00 | 0.00 | 46 | 1002.2 |
| 20260509131710 | 46 | 248 | 0.0 | 2.0 | 0.00 | 0.00 | 0.00 | 46 | 1002.1 |
| 20260509131004 | 46 | 294 | 2.0 | 9.0 | 0.00 | 0.00 | 0.00 | 45 | 1002.0 |
| 20260509130209 | 46 | 288 | 2.0 | 6.0 | 0.00 | 0.00 | 0.00 | 44 | 1002.0 |
| 20260509130004 | 46 | 311 | 2.0 | 15.0 | 0.00 | 0.00 | 0.00 | 46 | 1002.0 |
| 20260509125004 | 46 | 335 | 2.0 | 8.0 | 0.00 | 0.00 | 0.00 | 46 | 1001.9 |
| 20260509124709 | 46 | 310 | 2.0 | 6.0 | 0.00 | 0.00 | 0.00 | 46 | 1001.9 |
| 20260509124004 | 46 | 296 | 1.0 | 9.0 | 0.00 | 0.00 | 0.00 | 46 | 1001.8 |
| 20260509123210 | 46 | 342 | 5.0 | 5.0 | 0.00 | 0.00 | 0.00 | 45 | 1001.7 |
| 20260509123004 | 46 | 289 | 2.0 | 7.0 | 0.00 | 0.00 | 0.00 | 47 | 1001.7 |
| 20260509122005 | 46 | 289 | 3.0 | 7.0 | 0.00 | 0.00 | 0.00 | 46 | 1001.7 |
| 20260509121709 | 46 | 281 | 3.0 | 3.0 | 0.00 | 0.00 | 0.00 | 47 | 1001.7 |
| 20260509121004 | 46 | 278 | 5.0 | 12.0 | 0.00 | 0.00 | 0.00 | 46 | 1001.8 |
| 20260509120210 | 46 | 300 | 2.0 | 8.0 | 0.00 | 0.00 | 0.00 | 45 | 1001.6 |
| 20260509120004 | 46 | 291 | 3.0 | 7.0 | 0.00 | 0.00 | 0.00 | 45 | 1001.6 |
| 20260509115004 | 47 | 284 | 4.0 | 8.0 | 0.00 | 0.00 | 0.00 | 45 | 1001.4 |
| 20260509114708 | 47 | 305 | 1.0 | 5.0 | 0.00 | 0.00 | 0.00 | 46 | 1001.3 |
| 20260509114004 | 47 | 300 | 2.0 | 9.0 | 0.00 | 0.00 | 0.00 | 48 | 1001.3 |
| 20260509113209 | 47 | 292 | 2.0 | 3.0 | 0.00 | 0.00 | 0.00 | 49 | 1001.1 |
| 20260509113004 | 47 | 287 | 2.0 | 9.0 | 0.00 | 0.00 | 0.00 | 49 | 1001.2 |
| 20260509112004 | 47 | 294 | 2.0 | 6.0 | 0.00 | 0.00 | 0.00 | 47 | 1000.9 |
| 20260509111709 | 47 | 265 | 2.0 | 3.0 | 0.00 | 0.00 | 0.00 | 48 | 1000.9 |
| 20260509111004 | 48 | 254 | 3.0 | 12.0 | 0.00 | 0.00 | 0.00 | 50 | 1000.9 |
| 20260509110209 | 48 | 310 | 5.0 | 12.0 | 0.00 | 0.00 | 0.00 | 48 | 1000.7 |
| 20260509110004 | 48 | 278 | 3.0 | 12.0 | 0.00 | 0.00 | 0.00 | 48 | 1000.7 |
| 20260509105004 | 49 | 249 | 5.0 | 18.0 | 0.00 | 0.00 | 0.00 | 49 | 1000.5 |
| 20260509104710 | 49 | 275 | 8.0 | 12.0 | 0.00 | 0.00 | 0.00 | 49 | 1000.5 |
| 20260509104004 | 49 | 252 | 5.0 | 12.0 | 0.00 | 0.00 | 0.00 | 51 | 1000.4 |
| 20260509103209 | 49 | 257 | 3.0 | 6.0 | 0.00 | 0.00 | 0.00 | 52 | 1000.3 |
| 20260509103004 | 49 | 291 | 6.0 | 13.0 | 0.00 | 0.00 | 0.00 | 51 | 1000.3 |
| 20260509102004 | 49 | 259 | 4.0 | 12.0 | 0.00 | 0.00 | 0.00 | 52 | 1000.4 |
| 20260509101710 | 49 | 256 | 7.0 | 9.0 | 0.00 | 0.00 | 0.00 | 51 | 1000.3 |
| 20260509101004 | 49 | 282 | 6.0 | 9.0 | 0.00 | 0.00 | 0.00 | 51 | 1000.2 |
| 20260509100208 | 49 | 257 | 5.0 | 9.0 | 0.00 | 0.00 | 0.00 | 50 | 1000.2 |
| 20260509100004 | 49 | 253 | 5.0 | 9.0 | 0.00 | 0.00 | 0.00 | 50 | 1000.2 |
| 20260509095004 | 49 | 274 | 5.0 | 12.0 | 0.00 | 0.00 | 0.00 | 53 | 1000.2 |
| 20260509094709 | 49 | 256 | 6.0 | 8.0 | 0.00 | 0.00 | 0.00 | 53 | 1000.3 |
| 20260509094004 | 49 | 254 | 6.0 | 13.0 | 0.00 | 0.00 | 0.00 | 52 | 1000.2 |
| 20260509093210 | 49 | 256 | 7.0 | 9.0 | 0.00 | 0.00 | 0.00 | 52 | 1000.2 |
| 20260509093004 | 49 | 263 | 7.0 | 12.0 | 0.00 | 0.00 | 0.00 | 52 | 1000.2 |
| 20260509092004 | 49 | 249 | 4.0 | 8.0 | 0.00 | 0.00 | 0.00 | 52 | 1000.3 |
| 20260509091709 | 49 | 268 | 3.0 | 5.0 | 0.00 | 0.00 | 0.00 | 52 | 1000.3 |
| 20260509091003 | 49 | 258 | 3.0 | 8.0 | 0.00 | 0.00 | 0.00 | 52 | 1000.4 |
| 20260509090210 | 49 | 274 | 5.0 | 8.0 | 0.00 | 0.00 | 0.00 | 52 | 1000.4 |
| 20260509090004 | 49 | 280 | 3.0 | 7.0 | 0.00 | 0.00 | 0.00 | 50 | 1000.3 |
| 20260509085004 | 49 | 280 | 4.0 | 9.0 | 0.00 | 0.00 | 0.00 | 50 | 1000.4 |
| 20260509084709 | 48 | 261 | 3.0 | 6.0 | 0.00 | 0.00 | 0.00 | 52 | 1000.3 |
| 20260509084004 | 48 | 272 | 4.0 | 9.0 | 0.00 | 0.00 | 0.00 | 54 | 1000.4 |
| 20260509083209 | 48 | 280 | 2.0 | 3.0 | 0.00 | 0.00 | 0.00 | 55 | 1000.4 |
| 20260509083004 | 48 | 265 | 1.0 | 3.0 | 0.00 | 0.00 | 0.00 | 54 | 1000.4 |
| 20260509082004 | 49 | 253 | 2.0 | 3.0 | 0.00 | 0.00 | 0.00 | 55 | 1000.2 |
| 20260509081709 | 49 | 252 | 2.0 | 3.0 | 0.00 | 0.00 | 0.00 | 53 | 1000.2 |
| 20260509081004 | 49 | 251 | 3.0 | 3.0 | 0.00 | 0.00 | 0.00 | 56 | 1000.3 |
| 20260509080208 | 49 | 259 | 2.0 | 3.0 | 0.00 | 0.00 | 0.00 | 53 | 1000.2 |
| 20260509075004 | 49 | 257 | 3.0 | 6.0 | 0.00 | 0.00 | 0.00 | 51 | 1000.3 |
| 20260509074709 | 49 | 265 | 2.0 | 3.0 | 0.00 | 0.00 | 0.00 | 51 | 1000.2 |
| 20260509074003 | 49 | 258 | 3.0 | 5.0 | 0.00 | 0.00 | 0.00 | 53 | 1000.3 |
| 20260509073210 | 49 | 262 | 3.0 | 3.0 | 0.00 | 0.00 | 0.00 | 52 | 1000.3 |
| 20260509073004 | 49 | 254 | 2.0 | 6.0 | 0.00 | 0.00 | 0.00 | 51 | 1000.3 |
| 20260509072003 | 49 | 264 | 2.0 | 3.0 | 0.00 | 0.00 | 0.00 | 50 | 1000.3 |
| 20260509071708 | 49 | 258 | 2.0 | 3.0 | 0.00 | 0.00 | 0.00 | 55 | 1000.3 |
| 20260509070209 | 50 | 267 | 2.0 | 3.0 | 0.00 | 0.00 | 0.00 | 53 | 1000.6 |
| 20260509065003 | 50 | 264 | 3.0 | 5.0 | 0.00 | 0.00 | 0.00 | 54 | 1000.7 |
| 20260509064709 | 50 | 270 | 3.0 | 5.0 | 0.00 | 0.00 | 0.00 | 53 | 1000.6 |
| 20260509063208 | 50 | 264 | 2.0 | 3.0 | 0.00 | 0.00 | 0.00 | 55 | 1001.0 |
| 20260509063004 | 50 | 263 | 2.0 | 7.0 | 0.00 | 0.00 | 0.00 | 49 | 1000.8 |
| 20260509062004 | 51 | 242 | 1.0 | 6.0 | 0.00 | 0.00 | 0.00 | 51 | 1000.7 |
| 20260509061710 | 51 | 244 | 1.0 | 2.0 | 0.00 | 0.00 | 0.00 | 49 | 1000.8 |
| 20260509061003 | 51 | 261 | 2.0 | 5.0 | 0.00 | 0.00 | 0.00 | 48 | 1000.9 |
| 20260509060208 | 51 | 271 | 1.0 | 2.0 | 0.00 | 0.00 | 0.00 | 47 | 1000.7 |
| 20260509060005 | 51 | 269 | 2.0 | 6.0 | 0.00 | 0.00 | 0.00 | 45 | 1000.5 |
| 20260509055004 | 52 | 287 | 1.0 | 5.0 | 0.00 | 0.00 | 0.00 | 45 | 1000.5 |
| 20260509054709 | 52 | 298 | 0.0 | 3.0 | 0.00 | 0.00 | 0.00 | 44 | 1000.6 |
| 20260509053209 | 52 | 291 | 2.0 | 8.0 | 0.00 | 0.00 | 0.00 | 44 | 1000.8 |
| 20260509053004 | 52 | 290 | 3.0 | 6.0 | 0.00 | 0.00 | 0.00 | 44 | 1000.8 |
| 20260509052004 | 53 | 238 | 2.0 | 7.0 | 0.00 | 0.00 | 0.00 | 44 | 1000.8 |
| 20260509051708 | 53 | 250 | 1.0 | 2.0 | 0.00 | 0.00 | 0.00 | 45 | 1000.9 |
| 20260509051004 | 53 | 295 | 1.0 | 10.0 | 0.00 | 0.00 | 0.00 | 43 | 1000.7 |
| 20260509050209 | 54 | 307 | 3.0 | 3.0 | 0.00 | 0.00 | 0.00 | 43 | 1000.9 |
| 20260509050004 | 54 | 306 | 3.0 | 12.0 | 0.00 | 0.00 | 0.00 | 45 | 1000.9 |
| 20260509045004 | 54 | 5 | 2.0 | 14.0 | 0.00 | 0.00 | 0.00 | 45 | 1000.7 |
| 20260509044709 | 54 | 274 | 3.0 | 12.0 | 0.00 | 0.00 | 0.00 | 45 | 1000.7 |
| 20260509044004 | 54 | 270 | 5.0 | 16.0 | 0.00 | 0.00 | 0.00 | 44 | 1000.8 |
| 20260509043210 | 54 | 293 | 3.0 | 8.0 | 0.00 | 0.00 | 0.00 | 45 | 1000.6 |
| 20260509043004 | 53 | 264 | 4.0 | 12.0 | 0.00 | 0.00 | 0.00 | 46 | 1000.5 |
| 20260509042004 | 51 | 289 | 5.0 | 14.0 | 0.00 | 0.00 | 0.00 | 54 | 1000.5 |
| 20260509041709 | 50 | 263 | 3.0 | 8.0 | 0.00 | 0.00 | 0.00 | 59 | 1000.5 |
| 20260509041004 | 51 | 257 | 2.0 | 3.0 | 0.00 | 0.00 | 0.00 | 63 | 1000.5 |
| 20260509040209 | 51 | 266 | 2.0 | 3.0 | 0.00 | 0.00 | 0.00 | 60 | 1000.4 |
| 20260509040004 | 51 | 269 | 2.0 | 5.0 | 0.00 | 0.00 | 0.00 | 60 | 1000.5 |
| 20260509035003 | 51 | 286 | 2.0 | 7.0 | 0.00 | 0.00 | 0.00 | 54 | 1000.2 |
| 20260509034709 | 51 | 271 | 1.0 | 2.0 | 0.00 | 0.00 | 0.00 | 50 | 1000.2 |
| 20260509034004 | 52 | 295 | 1.0 | 5.0 | 0.00 | 0.00 | 0.00 | 62 | 1000.2 |
| 20260509033208 | 52 | 221 | 0.0 | 0.0 | 0.00 | 0.00 | 0.00 | 61 | 1000.0 |
| 20260509033003 | 52 | 220 | 1.0 | 2.0 | 0.00 | 0.00 | 0.00 | 61 | 1000.0 |
| 20260509032004 | 52 | 218 | 0.0 | 2.0 | 0.00 | 0.00 | 0.00 | 61 | 1000.1 |
| 20260509031709 | 53 | 218 | 0.0 | 2.0 | 0.00 | 0.00 | 0.00 | 61 | 1000.2 |
| 20260509031003 | 53 | 218 | 0.0 | 1.0 | 0.00 | 0.00 | 0.00 | 59 | 1000.2 |
| 20260509030208 | 53 | 217 | 0.0 | 0.0 | 0.00 | 0.00 | 0.00 | 59 | 1000.3 |
| 20260509030004 | 53 | 218 | 0.0 | 1.0 | 0.00 | 0.00 | 0.00 | 58 | 1000.2 |
| 20260509025003 | 54 | 218 | 0.0 | 0.0 | 0.00 | 0.00 | 0.00 | 56 | 1000.2 |
| 20260509024709 | 54 | 218 | 0.0 | 0.0 | 0.00 | 0.00 | 0.00 | 56 | 1000.3 |
| 20260509024004 | 54 | 218 | 0.0 | 0.0 | 0.00 | 0.00 | 0.00 | 53 | 1000.3 |
| 20260509023209 | 54 | 218 | 0.0 | 0.0 | 0.00 | 0.00 | 0.00 | 51 | 1000.4 |
| 20260509022003 | 55 | 218 | 0.0 | 1.0 | 0.00 | 0.00 | 0.00 | 49 | 1000.4 |
| 20260509021709 | 55 | 218 | 0.0 | 0.0 | 0.00 | 0.00 | 0.00 | 49 | 1000.4 |
| 20260509021004 | 56 | 218 | 0.0 | 0.0 | 0.00 | 0.00 | 0.00 | 48 | 1000.6 |
| 20260509020209 | 56 | 218 | 0.0 | 0.0 | 0.00 | 0.00 | 0.00 | 45 | 1000.5 |
| 20260509020004 | 56 | 218 | 0.0 | 1.0 | 0.00 | 0.00 | 0.00 | 44 | 1000.5 |
| 20260509014708 | 57 | 218 | 0.0 | 0.0 | 0.00 | 0.00 | 0.00 | 38 | 1000.6 |
| 20260509014003 | 58 | 218 | 0.0 | 0.0 | 0.00 | 0.00 | 0.00 | 37 | 1000.6 |
| 20260509013209 | 58 | 218 | 0.0 | 0.0 | 0.00 | 0.00 | 0.00 | 38 | 1000.6 |
| 20260509013004 | 58 | 218 | 0.0 | 1.0 | 0.00 | 0.00 | 0.00 | 38 | 1000.6 |
| 20260509012004 | 59 | 218 | 1.0 | 3.0 | 0.00 | 0.00 | 0.00 | 38 | 1000.7 |
| 20260509011708 | 59 | 218 | 1.0 | 2.0 | 0.00 | 0.00 | 0.00 | 37 | 1000.7 |
| 20260509011004 | 59 | 217 | 2.0 | 5.0 | 0.00 | 0.00 | 0.00 | 36 | 1000.7 |
| 20260509010210 | 59 | 224 | 3.0 | 3.0 | 0.00 | 0.00 | 0.00 | 37 | 1000.8 |
| 20260509010005 | 59 | 235 | 3.0 | 7.0 | 0.00 | 0.00 | 0.00 | 37 | 1000.8 |
| 20260509005006 | 59 | 233 | 5.0 | 6.0 | 0.00 | 0.00 | 0.00 | 37 | 1000.7 |
| 20260509004710 | 59 | 246 | 5.0 | 5.0 | 0.00 | 0.00 | 0.00 | 43 | 1000.8 |
| 20260509004006 | 59 | 242 | 3.0 | 8.0 | 0.00 | 0.00 | 0.00 | 39 | 1000.9 |
| 20260509003210 | 60 | 252 | 3.0 | 7.0 | 0.00 | 0.00 | 0.00 | 38 | 1000.8 |
| 20260509003005 | 60 | 250 | 5.0 | 10.0 | 0.00 | 0.00 | 0.00 | 34 | 1000.9 |
| 20260509002006 | 60 | 247 | 6.0 | 13.0 | 0.00 | 0.00 | 0.00 | 33 | 1000.9 |
| 20260509001711 | 60 | 253 | 7.0 | 13.0 | 0.00 | 0.00 | 0.00 | 34 | 1000.9 |
| 20260509001005 | 60 | 254 | 6.0 | 17.0 | 0.00 | 0.00 | 0.00 | 35 | 1001.1 |
| 20260509000211 | 60 | 261 | 12.0 | 14.0 | 0.00 | 0.00 | 0.00 | 32 | 1001.1 |
| 20260508234711 | 60 | 268 | 9.0 | 14.0 | 0.00 | 0.00 | 0.00 | 30 | 1001.1 |
| 20260508234005 | 60 | 262 | 10.0 | 15.0 | 0.00 | 0.00 | 0.00 | 36 | 1001.2 |
| 20260508233211 | 60 | 255 | 7.0 | 10.0 | 0.00 | 0.00 | 0.00 | 33 | 1001.3 |
| 20260508233005 | 60 | 245 | 11.0 | 17.0 | 0.00 | 0.00 | 0.00 | 32 | 1001.2 |
| 20260508232006 | 60 | 236 | 8.0 | 14.0 | 0.00 | 0.00 | 0.00 | 33 | 1001.4 |
| 20260508231710 | 60 | 238 | 7.0 | 8.0 | 0.00 | 0.00 | 0.00 | 33 | 1001.4 |
| 20260508231005 | 60 | 251 | 7.0 | 15.0 | 0.00 | 0.00 | 0.00 | 33 | 1001.5 |
| 20260508230210 | 61 | 233 | 12.0 | 15.0 | 0.00 | 0.00 | 0.00 | 35 | 1001.5 |
| 20260508230005 | 61 | 228 | 12.0 | 17.0 | 0.00 | 0.00 | 0.00 | 31 | 1001.5 |
| 20260508225005 | 61 | 269 | 7.0 | 18.0 | 0.00 | 0.00 | 0.00 | 29 | 1001.5 |
| 20260508224710 | 61 | 259 | 10.0 | 10.0 | 0.00 | 0.00 | 0.00 | 38 | 1001.6 |
| 20260508224005 | 60 | 227 | 7.0 | 16.0 | 0.00 | 0.00 | 0.00 | 34 | 1001.5 |
| 20260508223211 | 60 | 230 | 14.0 | 16.0 | 0.00 | 0.00 | 0.00 | 35 | 1001.9 |
| 20260508223005 | 60 | 230 | 10.0 | 20.0 | 0.00 | 0.00 | 0.00 | 33 | 1001.9 |
| 20260508222005 | 61 | 231 | 13.0 | 20.0 | 0.00 | 0.00 | 0.00 | 32 | 1001.9 |
| 20260508221710 | 60 | 250 | 9.0 | 12.0 | 0.00 | 0.00 | 0.00 | 34 | 1001.9 |
| 20260508221005 | 60 | 241 | 9.0 | 16.0 | 0.00 | 0.00 | 0.00 | 31 | 1001.9 |
| 20260508220210 | 61 | 235 | 14.0 | 16.0 | 0.00 | 0.00 | 0.00 | 34 | 1002.2 |
| 20260508215005 | 60 | 236 | 12.0 | 17.0 | 0.00 | 0.00 | 0.00 | 33 | 1002.3 |
| 20260508214711 | 60 | 236 | 14.0 | 15.0 | 0.00 | 0.00 | 0.00 | 33 | 1002.4 |
| 20260508214005 | 61 | 282 | 6.0 | 17.0 | 0.00 | 0.00 | 0.00 | 29 | 1002.3 |
| 20260508213210 | 60 | 283 | 5.0 | 7.0 | 0.00 | 0.00 | 0.00 | 31 | 1002.4 |
| 20260508213005 | 60 | 282 | 5.0 | 14.0 | 0.00 | 0.00 | 0.00 | 31 | 1002.4 |
| 20260508212005 | 59 | 251 | 7.0 | 12.0 | 0.00 | 0.00 | 0.00 | 35 | 1002.5 |
| 20260508211710 | 59 | 251 | 7.0 | 8.0 | 0.00 | 0.00 | 0.00 | 33 | 1002.5 |
| 20260508211005 | 59 | 238 | 9.0 | 17.0 | 0.00 | 0.00 | 0.00 | 34 | 1002.6 |
| 20260508210210 | 60 | 243 | 8.0 | 10.0 | 0.00 | 0.00 | 0.00 | 33 | 1002.7 |
| 20260508210005 | 60 | 270 | 8.0 | 13.0 | 0.00 | 0.00 | 0.00 | 33 | 1002.7 |
| 20260508204711 | 59 | 237 | 6.0 | 9.0 | 0.00 | 0.00 | 0.00 | 31 | 1002.7 |
| 20260508204005 | 59 | 231 | 6.0 | 13.0 | 0.00 | 0.00 | 0.00 | 34 | 1002.8 |
| 20260508203211 | 59 | 243 | 10.0 | 12.0 | 0.00 | 0.00 | 0.00 | 35 | 1002.9 |
| 20260508203005 | 59 | 231 | 9.0 | 12.0 | 0.00 | 0.00 | 0.00 | 36 | 1002.9 |
| 20260508202005 | 59 | 267 | 3.0 | 10.0 | 0.00 | 0.00 | 0.00 | 31 | 1003.1 |
| 20260508201710 | 59 | 279 | 7.0 | 8.0 | 0.00 | 0.00 | 0.00 | 30 | 1003.2 |
| 20260508200211 | 59 | 265 | 10.0 | 14.0 | 0.00 | 0.00 | 0.00 | 31 | 1003.2 |
| 20260508200005 | 59 | 254 | 10.0 | 20.0 | 0.00 | 0.00 | 0.00 | 32 | 1003.2 |
| 20260508195005 | 59 | 226 | 2.0 | 14.0 | 0.00 | 0.00 | 0.00 | 31 | 1003.4 |
| 20260508194709 | 58 | 230 | 3.0 | 5.0 | 0.00 | 0.00 | 0.00 | 29 | 1003.6 |
| 20260508194005 | 58 | 251 | 9.0 | 14.0 | 0.00 | 0.00 | 0.00 | 31 | 1003.7 |
| 20260508193211 | 58 | 242 | 10.0 | 13.0 | 0.00 | 0.00 | 0.00 | 34 | 1003.9 |
| 20260508193005 | 58 | 254 | 5.0 | 15.0 | 0.00 | 0.00 | 0.00 | 30 | 1003.9 |
| 20260508192005 | 59 | 257 | 10.0 | 16.0 | 0.00 | 0.00 | 0.00 | 32 | 1004.0 |
| 20260508191710 | 60 | 227 | 8.0 | 13.0 | 0.00 | 0.00 | 0.00 | 30 | 1004.0 |
| 20260508191005 | 60 | 354 | 5.0 | 15.0 | 0.00 | 0.00 | 0.00 | 32 | 1004.0 |
| 20260508190211 | 59 | 260 | 12.0 | 14.0 | 0.00 | 0.00 | 0.00 | 31 | 1004.4 |
| 20260508190005 | 59 | 265 | 10.0 | 12.0 | 0.00 | 0.00 | 0.00 | 31 | 1004.4 |
| 20260508185005 | 57 | 266 | 11.0 | 14.0 | 0.00 | 0.00 | 0.00 | 31 | 1004.4 |
| 20260508184711 | 57 | 256 | 3.0 | 7.0 | 0.00 | 0.00 | 0.00 | 30 | 1004.5 |
| 20260508184005 | 58 | 244 | 10.0 | 20.0 | 0.00 | 0.00 | 0.00 | 34 | 1004.6 |
| 20260508183210 | 57 | 242 | 14.0 | 16.0 | 0.00 | 0.00 | 0.00 | 32 | 1004.6 |
| 20260508183005 | 57 | 233 | 15.0 | 22.0 | 0.00 | 0.00 | 0.00 | 34 | 1004.6 |
| 20260508182005 | 59 | 248 | 7.0 | 14.0 | 0.00 | 0.00 | 0.00 | 31 | 1005.0 |
| 20260508181710 | 58 | 278 | 5.0 | 8.0 | 0.00 | 0.00 | 0.00 | 31 | 1005.0 |
| 20260508181005 | 58 | 267 | 4.0 | 15.0 | 0.00 | 0.00 | 0.00 | 31 | 1005.0 |
| 20260508180211 | 57 | 236 | 6.0 | 7.0 | 0.00 | 0.00 | 0.00 | 32 | 1005.1 |
| 20260508175005 | 57 | 253 | 8.0 | 16.0 | 0.00 | 0.00 | 0.00 | 32 | 1005.2 |
| 20260508174709 | 57 | 249 | 8.0 | 15.0 | 0.00 | 0.00 | 0.00 | 32 | 1005.1 |
| 20260508173211 | 57 | 280 | 12.0 | 18.0 | 0.00 | 0.00 | 0.00 | 32 | 1005.4 |
| 20260508173005 | 57 | 305 | 9.0 | 21.0 | 0.00 | 0.00 | 0.00 | 31 | 1005.5 |
| 20260508171709 | 56 | 257 | 7.0 | 12.0 | 0.00 | 0.00 | 0.00 | 36 | 1005.7 |
| 20260508171005 | 57 | 255 | 10.0 | 18.0 | 0.00 | 0.00 | 0.00 | 33 | 1005.8 |
| 20260508170210 | 56 | 265 | 1.0 | 3.0 | 0.00 | 0.00 | 0.00 | 33 | 1005.8 |
| 20260508170005 | 56 | 276 | 3.0 | 15.0 | 0.00 | 0.00 | 0.00 | 32 | 1006.0 |
| 20260508164710 | 56 | 240 | 8.0 | 9.0 | 0.00 | 0.00 | 0.00 | 34 | 1006.2 |
| 20260508164004 | 56 | 265 | 2.0 | 10.0 | 0.00 | 0.00 | 0.00 | 35 | 1006.2 |
| 20260508163211 | 55 | 256 | 3.0 | 7.0 | 0.00 | 0.00 | 0.00 | 34 | 1006.3 |
| 20260508163005 | 55 | 235 | 12.0 | 16.0 | 0.00 | 0.00 | 0.00 | 35 | 1006.4 |
| 20260508162005 | 54 | 224 | 7.0 | 20.0 | 0.00 | 0.00 | 0.00 | 38 | 1006.6 |
| 20260508161710 | 54 | 245 | 10.0 | 13.0 | 0.00 | 0.00 | 0.00 | 41 | 1006.7 |
| 20260508161005 | 55 | 250 | 13.0 | 18.0 | 0.00 | 0.00 | 0.00 | 34 | 1006.8 |
| 20260508160211 | 54 | 244 | 12.0 | 13.0 | 0.00 | 0.00 | 0.00 | 38 | 1006.9 |
| 20260508160004 | 54 | 243 | 12.0 | 17.0 | 0.00 | 0.00 | 0.00 | 36 | 1006.9 |
| 20260508155005 | 54 | 257 | 12.0 | 16.0 | 0.00 | 0.00 | 0.00 | 34 | 1007.0 |
| 20260508154711 | 55 | 255 | 8.0 | 14.0 | 0.00 | 0.00 | 0.00 | 36 | 1006.9 |
| 20260508154004 | 54 | 303 | 6.0 | 14.0 | 0.00 | 0.00 | 0.00 | 36 | 1007.1 |
| 20260508153211 | 53 | 241 | 2.0 | 3.0 | 0.00 | 0.00 | 0.00 | 41 | 1007.3 |
| 20260508153005 | 53 | 226 | 8.0 | 14.0 | 0.00 | 0.00 | 0.00 | 43 | 1007.2 |
| 20260508151711 | 52 | 256 | 6.0 | 8.0 | 0.00 | 0.00 | 0.00 | 44 | 1007.4 |
| 20260508151005 | 52 | 312 | 1.0 | 16.0 | 0.00 | 0.00 | 0.00 | 41 | 1007.4 |
| 20260508150210 | 52 | 245 | 12.0 | 16.0 | 0.00 | 0.00 | 0.00 | 42 | 1007.6 |
| 20260508150006 | 52 | 259 | 9.0 | 12.0 | 0.00 | 0.00 | 0.00 | 40 | 1007.6 |